Regional Weather Roundup
Issued by NWS

Home | Current Version | Previous Version | Text Only | Print | Product List | Glossary Off
Versions: 1 2 3 4 5 6 7 8 9 10 11 12 13 14 15 16 17 18 19 20 21 22 23 24 25 26 27 28 29 30 31 32 33 34 35 36 37 38 39 40 41 42 43 44 45 46 47 48 49 50

000
ASUS43 KFSD 231102
RWRSD

WEATHER ROUNDUP FOR SOUTH DAKOTA
NATIONAL WEATHER SERVICE SIOUX FALLS SD
600 AM CDT MON APR 23 2018

NOTE: "FAIR" INDICATES FEW OR NO CLOUDS BELOW 12,000 FEET WITH NO
SIGNIFICANT WEATHER AND/OR OBSTRUCTIONS TO VISIBILITY.


SDZ001>005-009-010-012>017-231200-
NORTHWEST AND NORTH CENTRAL SOUTH DAKOTA

CITY           SKY/WX    TMP DP  RH WIND       PRES   REMARKS
BUFFALO          N/A     44  35  70 NE9       30.04R
FAITH            N/A     40  37  89 SE10      30.10R
MOBRIDGE       CLEAR     39  33  79 SE8       30.11R
$$

SDZ012>016-024>037-041>051-057-063-072>074-231200-
SOUTHWEST AND SOUTH CENTRAL SOUTH DAKOTA

CITY           SKY/WX    TMP DP  RH WIND       PRES   REMARKS
RAPID CTY ARPT CLEAR     38  35  89 E6        30.06S
PIERRE         CLEAR     37  34  89 E6        30.13S
CUSTER         CLEAR     33  29  85 NW6       30.11S WCI  28
PHILIP         CLEAR     40  36  86 E3        30.10S
PINE RIDGE     CLEAR     43  36  76 W7        30.10S
SPEARFISH      FAIR      41  32  70 SW5       30.08S
WINNER         FAIR      42  34  73 S7        30.15S
$$

SDZ004>011-016>023-039-040-231200-
NORTHEAST SOUTH DAKOTA

CITY           SKY/WX    TMP DP  RH WIND       PRES   REMARKS
ABERDEEN       CLEAR     33  32  96 S3        30.18S FOG
WATERTOWN      CLEAR     36  34  92 S3        30.19R
BROOKINGS      CLEAR     37  34  89 CALM      30.21R
SISSETON         N/A     33  33 100 CALM      30.18S
$$

SDZ017-020-022-023-036>040-048>070-231200-
SOUTHEAST SOUTH DAKOTA

CITY           SKY/WX    TMP DP  RH WIND       PRES   REMARKS
SIOUX FALLS    CLEAR     34  30  85 NE3       30.20S
HURON          CLEAR     39  37  92 SE5       30.18S
CHAMBERLAIN    CLEAR     39  39  98 E6        30.16S
MITCHELL       CLEAR     38  37  97 SE6       30.19S
YANKTON        CLEAR     38  37  97 CALM      30.20R
$$

ABBREVIATIONS USED IN REMARKS
   TC - TEMPERATURE IN CELSIUS
  WCI - WIND CHILL INDEX
   HX - HEAT INDEX
  VSB - VISIBILITY




USA.gov is the U.S. government's official web portal to all federal, state and local government web resources and services.